Flag for Greece Weather past 2 weeks in Alexandroupoli, Greece

Now
46 °F

Mostly cloudy.


Feels Like: 40 °F
Forecast: 42 / 46 °F
Wind: 15 mph from Northeast

Location: Alexandroupoli Airport

Current Time: Jan 26, 2015 at 8:26:11 PM

Latest Report: Jan 26, 2015 at 6:50 PM


Visibility: N/A

Pressure: 30.07 "Hg

Humidity: 87%

Dew point: 43 °F

Location of AlexandroupoliLocation

Historic Weather in Alexandroupoli — Graph

°F

Alexandroupoli temperature yesterday

Maximum temperature yesterday: 52 °F (at 8:50 AM)
Minimum temperature yesterday: 50 °F (at 7:50 AM)
Average temperature yesterday: 51 °F

Past Weeks' High & Low Weather Summary

 TemperatureHumidityPressure
High64 °F (Jan 23, 1:50 PM)100% (Jan 17, 9:20 AM)30.36 "Hg (Jan 17, 9:20 AM)
Low27 °F (Jan 15, 5:50 AM)40% (Jan 23, 2:50 PM)29.65 "Hg (Jan 24, 7:50 AM)
Average48 °F83%30.06 "Hg
* Reported Jan 11 6:20 PM — Jan 26 6:50 PM, Alexandroupoli, Weather by CustomWeather, © 2014

Note: Actual official high and low records may vary slightly from our data, if they occured in-between our weather recording intervals... More about our weather records

Advertising

Alexandroupoli weather history for previous 24 hours

 ConditionsComfort  
Time TempWeatherWind HumidityBarometerVisibility
6:50 PM
Jan 26
46 °FMostly cloudy.15 mph87%30.07 "HgN/A
6:20 PM46 °FMostly cloudy.14 mph87%30.07 "HgN/A
5:50 PM46 °FMostly cloudy.14 mph87%30.07 "HgN/A
5:20 PM46 °FMostly cloudy.15 mph87%30.07 "HgN/A
4:50 PM46 °FMostly cloudy.15 mph87%30.07 "HgN/A
4:20 PM48 °FOvercast.13 mph87%30.04 "HgN/A
3:50 PM48 °FOvercast.13 mph87%30.04 "HgN/A
3:20 PM48 °FMostly cloudy.12 mph87%30.04 "HgN/A
2:50 PM48 °FLight rain. Mostly cloudy.9 mph87%30.04 "HgN/A
2:20 PM48 °FLight rain. Mostly cloudy.8 mph94%30.04 "Hg4 mi
1:50 PM48 °FLight rain. Mostly cloudy.8 mph94%30.04 "Hg4 mi
1:20 PM50 °FLight rain. Partly sunny.8 mph88%30.04 "Hg4 mi
12:50 PM50 °FLight rain. Partly sunny.8 mph88%30.04 "Hg4 mi
12:20 PM50 °FLight rain. Partly sunny.9 mph88%30.04 "Hg4 mi
11:50 AM50 °FLight rain. Broken clouds.12 mph88%30.04 "Hg4 mi
11:20 AM50 °FBroken clouds.12 mph88%30.04 "HgN/A
10:50 AM50 °FBroken clouds.12 mph88%30.04 "HgN/A
10:20 AM48 °FBroken clouds.9 mph94%30.04 "HgN/A
9:50 AM48 °FBroken clouds.9 mph94%30.04 "HgN/A
9:20 AM48 °FBroken clouds.10 mph87%30.04 "HgN/A
8:50 AM48 °FBroken clouds.10 mph87%30.01 "HgN/A
8:20 AM48 °FBroken clouds.10 mph87%30.01 "HgN/A
7:50 AM48 °FBroken clouds.8 mph87%30.01 "HgN/A
7:20 AM46 °FPartly cloudy.8 mph87%30.01 "HgN/A
6:50 AM46 °FPassing clouds.6 mph87%29.98 "HgN/A
6:20 AM45 °FPassing clouds.5 mph93%29.95 "HgN/A
5:50 AM46 °FPassing clouds.6 mph93%29.95 "HgN/A
5:20 AM46 °FPassing clouds.3 mph93%29.95 "HgN/A
4:50 AM48 °FPassing clouds.5 mph87%29.95 "HgN/A
4:20 AM48 °FMostly cloudy.5 mph87%29.95 "HgN/A
3:50 AM48 °FMostly cloudy.3 mph87%29.95 "HgN/A
3:20 AM48 °FMostly cloudy.5 mph94%29.95 "HgN/A
2:50 AM48 °FMostly cloudy.6 mph94%29.92 "HgN/A
2:20 AM48 °FMostly cloudy.5 mph94%29.92 "HgN/A
1:50 AM48 °FMostly cloudy.No wind94%29.92 "HgN/A
1:20 AM48 °FMostly cloudy.5 mph94%29.92 "HgN/A
12:50 AM48 °FMostly cloudy.5 mph94%29.92 "HgN/A
12:20 AM50 °FPassing clouds.5 mph94%29.92 "HgN/A
11:50 PM
Jan 25
50 °FPassing clouds.No wind94%29.92 "HgN/A
11:20 PM50 °FPassing clouds.3 mph94%29.89 "HgN/A
10:50 PM50 °FPassing clouds.3 mph94%29.89 "HgN/A
10:20 PM50 °FPassing clouds.6 mph82%29.89 "HgN/A
9:50 PM50 °FPartly cloudy.7 mph82%29.89 "HgN/A
9:20 PM50 °FPartly cloudy.6 mph82%29.89 "HgN/A
8:50 PM50 °FPartly cloudy.6 mph88%29.86 "HgN/A
8:20 PM50 °FPartly cloudy.7 mph94%29.86 "HgN/A
Weather by CustomWeather, © 2014

See weather overviewHow to use our weather pages